Location: Capvern
(43.1036°N, 0.3160°E)
Time: 05:23:50
(UTC+00:00)

Cosmos 489 Rocket - Pass Details

Date: 31 May 2022
Orbit: 952 x 983 km, 74.0° (Epoch: 03 July)

Event Time Altitude Azimuth Distance (km) Brightness Sun altitude
Rises 03:39:27 0° 334° (NNW) 3,647 7.7 -7.3°
Reaches altitude 10° 03:42:04 10° 328° (NNW) 2,701 6.9 -6.9°
Maximum altitude 03:47:58 46° 258° (WSW) 1,270 4.8 -6.0°
Drops below altitude 10° 03:53:54 10° 186° (S) 2,704 6.4 -5.2°
Sets 03:56:31 0° 181° (S) 3,652 7.1 -4.8°
